(344152) = 2000 SS50 = 2004 TH153

Discovered at Socorro on 2000-09-23 by LINEAR.

Orbit

Orbit type: Main Belt

Note: WebGL enabled browser required.

epoch2022-01-21.0
epoch JD2459600.5
perihelion date2020-03-25.99358
perihelion JD2458934.49358
argument of perihelion (°)156.36127
ascending node (°)200.06744
inclination (°)9.06143
eccentricity0.1794015
perihelion distance (AU)2.0361672
Tisserand w.r.t. Jupiter3.4
ΔV w.r.t. Earth (km/sec)9.3
semimajor axis (AU)2.4813197
mean anomaly (°)167.94155
mean daily motion (°/day)0.25216210
aphelion distance (AU)2.926
period (years)3.91
P-vector [x]0.99634104
P-vector [y]-0.07795746
P-vector [z]0.03503080
Q-vector [x]0.06621327
Q-vector [y]0.96323845
Q-vector [z]0.26036033
absolute magnitude17.56
phase slope0.15
uncertainty0
referenceMPO 697983
observations used149
oppositions10
arc length (days)7416
first opposition used2000
last opposition used2021
residual rms (arc-secs)0.67
perturbers coarse indicatorM-v
perturbers precise indicator003Ek
first observation date used2000-09-21.0
last observation date used2021-01-10.0
computer namePan
JD of orbit computation2456240.455724
perihelion JD uncertainty (days)1.3451E-03
argument of perihelion uncertainty (°)3.7116E-04
ascending node uncertainty (°)3.2858E-05
inclination uncertainty (°)1.4787E-05
eccentricity uncertainty 6.6307E-07
perihelion distance uncertainty (AU)1.5391E-06
Minimum Orbit Intersection Distances (in AU)
for orbit epoch: 2458200.5, reference: MPO434164
Mercury1.6676
Venus1.31299
Earth1.03079
Mars0.641752
Jupiter2.53788
Saturn6.4517
Uranus15.2779
Neptune27.2802

Observations

152 total observations over interval: 2000 09 21.34385 – 2021 01 10.249439
These data are available for download (format description).

